timestamp,surface_pressure_avg,surface_temp_avg,battery_voltage,lat,long
2020-08-18 00:09:01+00:00,345.9263,19.45,12.81,47.84626,-54.09684
2020-08-18 00:19:01+00:00,347.6364,19.46,12.73,47.84626,-54.09684
2020-08-18 00:29:01+00:00,338.2113,19.47,12.73,47.84626,-54.09684
2020-08-18 00:39:01+00:00,327.8279,19.49,12.73,47.84626,-54.09684
2020-08-18 00:49:01+00:00,327.5714,19.49,12.73,47.84626,-54.09684
2020-08-18 00:59:01+00:00,324.888,19.49,12.73,47.84626,-54.09684
2020-08-18 01:09:01+00:00,316.0496,19.55,12.73,47.84626,-54.09684
2020-08-18 01:19:01+00:00,308.483,19.6,12.73,47.84626,-54.09684
2020-08-18 01:29:01+00:00,303.6246,19.6,12.73,47.84626,-54.09684
2020-08-18 01:39:01+00:00,295.7147,19.6,12.73,47.84626,-54.09684
2020-08-18 01:49:01+00:00,285.3447,19.6,12.73,47.84626,-54.09684
2020-08-18 01:59:01+00:00,278.513,19.6,12.73,47.84626,-54.09684
2020-08-18 02:09:01+00:00,269.4964,19.7,12.73,47.84626,-54.09684
2020-08-18 02:19:01+00:00,260.4114,19.71,12.73,47.84626,-54.09684
2020-08-18 02:29:01+00:00,250.6881,19.78,12.73,47.84626,-54.09684
2020-08-18 02:39:01+00:00,240.0914,19.8,12.73,47.84626,-54.09684
2020-08-18 02:49:01+00:00,231.3914,19.8,12.73,47.84626,-54.09684
2020-08-18 02:59:01+00:00,225.8681,19.8,12.73,47.84626,-54.09684
2020-08-18 03:09:01+00:00,220.4865,19.8,12.73,47.84626,-54.09684
2020-08-18 03:19:01+00:00,211.4648,19.8,12.73,47.84626,-54.09684
2020-08-18 03:29:01+00:00,207.3748,19.8,12.73,47.84626,-54.09684
2020-08-18 03:39:01+00:00,206.9831,19.8,12.73,47.84626,-54.09684
2020-08-18 03:49:01+00:00,202.5581,19.8,12.73,47.84626,-54.09684
2020-08-18 03:59:01+00:00,196.1281,19.81,12.73,47.84626,-54.09684
2020-08-18 04:09:01+00:00,195.6348,19.86,12.73,47.84626,-54.09684
2020-08-18 04:19:01+00:00,197.6298,19.89,12.73,47.84626,-54.09684
2020-08-18 04:29:01+00:00,194.0665,19.9,12.73,47.84626,-54.09684
2020-08-18 04:39:01+00:00,190.9348,19.9,12.73,47.84626,-54.09684
2020-08-18 04:49:01+00:00,189.0381,19.9,12.73,47.84626,-54.09684
2020-08-18 04:59:01+00:00,189.9531,19.9,12.73,47.84626,-54.09684
2020-08-18 05:09:01+00:00,193.4865,19.9,12.73,47.84626,-54.09684
2020-08-18 05:19:01+00:00,190.8214,19.9,12.73,47.84626,-54.09684
2020-08-18 05:29:01+00:00,189.3082,19.9,12.73,47.84626,-54.09684
2020-08-18 05:39:01+00:00,194.8214,19.9,12.73,47.84626,-54.09684
2020-08-18 05:49:01+00:00,195.4415,19.9,12.73,47.84626,-54.09684
2020-08-18 05:59:01+00:00,193.3248,19.9,12.73,47.84626,-54.09684
2020-08-18 06:09:01+00:00,196.0548,19.9,12.73,47.84626,-54.09684
2020-08-18 06:19:01+00:00,202.0714,19.9,12.65,47.84626,-54.09684
2020-08-18 06:29:01+00:00,205.1064,19.9,12.65,47.84626,-54.09684
2020-08-18 06:39:01+00:00,208.7781,19.9,12.65,47.84626,-54.09684
2020-08-18 06:49:01+00:00,215.3647,19.9,12.65,47.84626,-54.09684
2020-08-18 06:59:01+00:00,219.5814,19.9,12.65,47.84626,-54.09684
2020-08-18 07:09:01+00:00,222.2698,19.9,12.65,47.84626,-54.09684
2020-08-18 07:19:01+00:00,230.1948,19.9,12.65,47.84626,-54.09684
2020-08-18 07:29:01+00:00,238.4897,19.9,12.65,47.84626,-54.09684
2020-08-18 07:39:01+00:00,241.6381,19.9,12.65,47.84626,-54.09684
2020-08-18 07:49:01+00:00,245.6514,19.9,12.65,47.84626,-54.09684
2020-08-18 07:59:01+00:00,251.4264,19.9,12.65,47.84626,-54.09684
2020-08-18 08:09:01+00:00,256.4398,19.9,12.65,47.84626,-54.09684
2020-08-18 08:19:01+00:00,260.2481,19.9,12.65,47.84626,-54.09684
2020-08-18 08:29:01+00:00,265.8931,19.89,12.65,47.84626,-54.09684
2020-08-18 08:39:01+00:00,273.408,19.89,12.65,47.84626,-54.09684
2020-08-18 08:49:01+00:00,280.4564,19.89,12.65,47.84626,-54.09684
2020-08-18 08:59:01+00:00,286.268,19.8,12.65,47.84626,-54.09684
2020-08-18 09:09:01+00:00,293.6864,19.6,12.65,47.84626,-54.09684
2020-08-18 09:19:01+00:00,305.0746,19.18,12.65,47.84626,-54.09684
2020-08-18 09:29:01+00:00,313.9697,19.14,12.65,47.84626,-54.09684
2020-08-18 09:39:01+00:00,316.6745,19.29,12.65,47.84626,-54.09684
2020-08-18 09:49:01+00:00,317.8362,19.2,12.65,47.84626,-54.09684
2020-08-18 09:59:01+00:00,325.0446,19.2,12.65,47.84626,-54.09684
2020-08-18 10:09:01+00:00,332.2812,19.27,12.65,47.84626,-54.09684
2020-08-18 10:19:01+00:00,331.6513,19.35,12.81,47.84626,-54.09684
2020-08-18 10:29:01+00:00,331.5729,19.5,12.81,47.84626,-54.09684
2020-08-18 10:39:01+00:00,336.6796,19.48,12.81,47.84626,-54.09684
2020-08-18 10:49:01+00:00,340.2128,18.52,12.81,47.84626,-54.09684
2020-08-18 10:59:01+00:00,339.0496,18.3,12.81,47.84626,-54.09684
2020-08-18 11:09:01+00:00,340.9530000000001,18.38,12.81,47.84626,-54.09684
2020-08-18 11:19:01+00:00,343.8729,18.6,13.29,47.84626,-54.09684
2020-08-18 11:29:01+00:00,341.6662,18.4,13.29,47.84626,-54.09684
2020-08-18 11:39:01+00:00,339.7697,18.45,13.29,47.84626,-54.09684
2020-08-18 11:49:01+00:00,335.3729,19.38,13.29,47.84626,-54.09684
2020-08-18 11:59:01+00:00,331.8180000000001,19.24,13.29,47.84626,-54.09684
2020-08-18 12:09:01+00:00,326.483,19.14,13.29,47.84626,-54.09684
2020-08-18 12:19:01+00:00,324.0715,19.47,13.21,47.84626,-54.09684
2020-08-18 12:29:01+00:00,322.0665,19.58,13.21,47.84626,-54.09684
2020-08-18 12:39:01+00:00,319.1964,19.5,13.21,47.84626,-54.09684
2020-08-18 12:49:01+00:00,316.2497,19.5,13.21,47.84626,-54.09684
2020-08-18 12:59:01+00:00,311.7863,19.56,13.21,47.84626,-54.09684
2020-08-18 13:09:01+00:00,307.5864,19.6,13.21,47.84626,-54.09684
2020-08-18 13:19:01+00:00,302.5297,19.2,13.13,47.84626,-54.09684
2020-08-18 13:29:01+00:00,297.3947,19.6,13.13,47.84626,-54.09684
2020-08-18 13:39:01+00:00,287.5847,19.69,13.13,47.84626,-54.09684
2020-08-18 13:49:01+00:00,278.5831,19.7,13.13,47.84626,-54.09684
2020-08-18 13:59:01+00:00,271.6514,19.7,13.13,47.84626,-54.09684
2020-08-18 14:09:01+00:00,262.6464,19.7,13.13,47.84626,-54.09684
2020-08-18 14:19:01+00:00,252.9764,19.75,13.44,47.84626,-54.09684
2020-08-18 14:29:01+00:00,245.9098,19.78,13.44,47.84626,-54.09684
2020-08-18 14:39:01+00:00,240.4214,19.78,13.44,47.84626,-54.09684
2020-08-18 14:49:01+00:00,232.8731,19.78,13.44,47.84626,-54.09684
2020-08-18 14:59:01+00:00,224.9881,19.78,13.44,47.84626,-54.09684
2020-08-18 15:09:01+00:00,221.368,19.79,13.44,47.84626,-54.09684
2020-08-18 15:19:01+00:00,217.0564,19.77,13.92,47.84626,-54.09684
2020-08-18 15:29:01+00:00,211.5981,19.76,13.92,47.84626,-54.09684
2020-08-18 15:39:01+00:00,206.8031,19.75,13.92,47.84626,-54.09684
2020-08-18 15:49:01+00:00,203.1164,19.77,13.92,47.84626,-54.09684
2020-08-18 15:59:01+00:00,198.8148,19.79,13.92,47.84626,-54.09684
2020-08-18 16:09:01+00:00,195.7397,19.79,13.92,47.84626,-54.09684
2020-08-18 16:19:01+00:00,195.1147,19.8,14.0,47.84626,-54.09684
2020-08-18 16:29:01+00:00,193.3531,19.79,14.0,47.84626,-54.09684
2020-08-18 16:39:01+00:00,193.5248,19.75,14.0,47.84626,-54.09684
2020-08-18 16:49:01+00:00,196.1298,19.7,14.0,47.84626,-54.09684
2020-08-18 16:59:01+00:00,195.9849,19.65,14.0,47.84626,-54.09684
2020-08-18 17:09:01+00:00,195.7398,19.7,14.0,47.84626,-54.09684
2020-08-18 17:19:01+00:00,200.1781,19.6,13.92,47.84626,-54.09684
2020-08-18 17:29:01+00:00,203.8199,19.6,13.92,47.84626,-54.09684
2020-08-18 17:39:01+00:00,204.1014,19.62,13.92,47.84626,-54.09684
2020-08-18 17:49:01+00:00,207.6598,19.7,13.92,47.84626,-54.09684
2020-08-18 17:59:01+00:00,211.7548,19.7,13.92,47.84626,-54.09684
2020-08-18 18:09:01+00:00,209.3981,19.7,13.92,47.84626,-54.09684
2020-08-18 18:19:01+00:00,205.6914,19.7,13.84,47.84626,-54.09684
2020-08-18 18:29:01+00:00,210.4064,19.77,13.84,47.84626,-54.09684
2020-08-18 18:39:01+00:00,218.4598,19.74,13.84,47.84626,-54.09684
2020-08-18 18:49:01+00:00,219.8314,19.8,13.84,47.84626,-54.09684
2020-08-18 18:59:01+00:00,220.4048,19.8,13.84,47.84626,-54.09684
2020-08-18 19:09:01+00:00,227.0315,18.93,13.84,47.84626,-54.09684
2020-08-18 19:19:01+00:00,232.5298,18.47,13.68,47.84626,-54.09684
2020-08-18 19:29:01+00:00,236.8431,19.19,13.68,47.84626,-54.09684
2020-08-18 19:39:01+00:00,242.9014,19.65,13.68,47.84626,-54.09684
2020-08-18 19:49:01+00:00,249.7097,19.25,13.68,47.84626,-54.09684
2020-08-18 19:59:01+00:00,256.6181,18.4,13.68,47.84626,-54.09684
2020-08-18 20:09:01+00:00,261.1547,18.59,13.68,47.84626,-54.09684
2020-08-18 20:19:01+00:00,267.8065,18.62,13.44,47.84626,-54.09684
2020-08-18 20:29:01+00:00,277.6731,18.38,13.44,47.84626,-54.09684
2020-08-18 20:39:01+00:00,284.9297,18.44,13.44,47.84626,-54.09684
2020-08-18 20:49:01+00:00,286.6614,18.5,13.44,47.84626,-54.09684
2020-08-18 20:59:01+00:00,294.8214,18.3,13.44,47.84626,-54.09684
2020-08-18 21:09:01+00:00,306.8897,18.3,13.44,47.84626,-54.09684
2020-08-18 21:19:01+00:00,317.5729,18.3,13.21,47.84626,-54.09684
2020-08-18 21:29:01+00:00,325.5829,18.3,13.21,47.84626,-54.09684
2020-08-18 21:39:01+00:00,332.9147,18.3,13.21,47.84626,-54.09684
2020-08-18 21:49:01+00:00,342.8947,18.3,13.21,47.84626,-54.09684
2020-08-18 21:59:01+00:00,348.2713,18.29,13.21,47.84626,-54.09684
2020-08-18 22:09:01+00:00,353.23800000000006,18.3,13.21,47.84626,-54.09684
2020-08-18 22:19:01+00:00,359.4646,18.29,12.81,47.84626,-54.09684
2020-08-18 22:29:01+00:00,362.5696,18.3,12.81,47.84626,-54.09684
2020-08-18 22:39:01+00:00,365.3029,18.32,12.81,47.84626,-54.09684
2020-08-18 22:49:01+00:00,367.6995,18.32,12.81,47.84626,-54.09684
2020-08-18 22:59:01+00:00,370.2745,18.19,12.81,47.84626,-54.09684
2020-08-18 23:09:01+00:00,376.1878,18.2,12.81,47.84626,-54.09684
2020-08-18 23:19:01+00:00,382.0763,18.2,12.73,47.84626,-54.09684
2020-08-18 23:29:01+00:00,381.6812,18.23,12.73,47.84626,-54.09684
2020-08-18 23:39:01+00:00,380.8779,18.28,12.73,47.84626,-54.09684
2020-08-18 23:49:01+00:00,380.86300000000006,18.3,12.73,47.84626,-54.09684
2020-08-18 23:59:01+00:00,377.8763,18.3,12.73,47.84626,-54.09684
